Year,Month,Day,Hour,Minute,Value (Times are PST for windspeed in km/hr)
2008,06,12,00,00,8.80
2008,06,12,00,01,5.70
2008,06,12,00,02,7.20
2008,06,12,00,03,3.70
2008,06,12,00,04,4.70
2008,06,12,00,05,4.70
2008,06,12,00,06,7.20
2008,06,12,00,07,6.00
2008,06,12,00,08,6.80
2008,06,12,00,09,4.40
2008,06,12,00,10,6.90
2008,06,12,00,11,6.20
2008,06,12,00,12,3.70
2008,06,12,00,13,7.80
2008,06,12,00,14,3.70
2008,06,12,00,15,4.20
2008,06,12,00,16,7.90
2008,06,12,00,17,2.70
2008,06,12,00,18,6.40
2008,06,12,00,19,7.10
2008,06,12,00,20,8.10
2008,06,12,00,21,7.30
2008,06,12,00,22,6.20
2008,06,12,00,23,7.30
2008,06,12,00,24,10.80
2008,06,12,00,25,5.40
2008,06,12,00,26,6.00
2008,06,12,00,27,9.70
2008,06,12,00,28,4.60
2008,06,12,00,29,5.10
2008,06,12,00,30,3.40
2008,06,12,00,31,4.00
2008,06,12,00,32,1.20
2008,06,12,00,33,1.70
2008,06,12,00,34,1.00
2008,06,12,00,35,1.90
2008,06,12,00,36,0.70
2008,06,12,00,37,0.50
2008,06,12,00,38,0.00
2008,06,12,00,39,1.30
2008,06,12,00,40,0.70
2008,06,12,00,41,2.00
2008,06,12,00,42,0.90
2008,06,12,00,43,0.00
2008,06,12,00,44,0.00
2008,06,12,00,45,0.00
2008,06,12,00,46,0.90
2008,06,12,00,47,0.60
2008,06,12,00,48,0.60
2008,06,12,00,49,0.00
2008,06,12,00,50,1.00
2008,06,12,00,51,0.00
2008,06,12,00,52,0.00
2008,06,12,00,53,0.00
2008,06,12,00,54,0.00
2008,06,12,00,55,0.00
2008,06,12,00,56,0.00
2008,06,12,00,57,0.60
2008,06,12,00,58,0.10
2008,06,12,00,59,0.00
2008,06,12,01,00,0.00
2008,06,12,01,01,0.00
2008,06,12,01,02,0.90
2008,06,12,01,03,1.60
2008,06,12,01,04,1.60
2008,06,12,01,05,1.30
2008,06,12,01,06,1.50
2008,06,12,01,07,0.00
2008,06,12,01,08,0.10
2008,06,12,01,09,0.40
2008,06,12,01,10,0.00
2008,06,12,01,11,0.50
2008,06,12,01,12,2.60
2008,06,12,01,13,1.80
2008,06,12,01,14,1.20
2008,06,12,01,15,0.40
2008,06,12,01,16,1.80
2008,06,12,01,17,0.90
2008,06,12,01,18,0.20
2008,06,12,01,19,0.50
2008,06,12,01,20,0.20
2008,06,12,01,21,0.10
2008,06,12,01,22,0.00
2008,06,12,01,23,0.00
2008,06,12,01,24,0.00
2008,06,12,01,25,0.00
2008,06,12,01,26,0.90
2008,06,12,01,27,0.90
2008,06,12,01,28,0.90
2008,06,12,01,29,0.00
2008,06,12,01,30,0.00
2008,06,12,01,31,0.00
2008,06,12,01,32,0.00
2008,06,12,01,33,0.00
2008,06,12,01,34,0.00
2008,06,12,01,35,0.00
2008,06,12,01,36,0.00
2008,06,12,01,37,0.00
2008,06,12,01,38,0.00
2008,06,12,01,39,0.00
2008,06,12,01,40,0.00
2008,06,12,01,41,0.00
2008,06,12,01,42,0.00
2008,06,12,01,43,0.50
2008,06,12,01,44,0.00
2008,06,12,01,45,0.00
2008,06,12,01,46,0.00
2008,06,12,01,47,0.00
2008,06,12,01,48,0.00
2008,06,12,01,49,0.00
2008,06,12,01,50,0.00
2008,06,12,01,51,0.10
2008,06,12,01,52,0.00
2008,06,12,01,53,0.00
2008,06,12,01,54,0.00
2008,06,12,01,55,0.00
2008,06,12,01,56,0.00
2008,06,12,01,57,0.00
2008,06,12,01,58,0.00
2008,06,12,01,59,0.00
2008,06,12,02,00,0.00
2008,06,12,02,01,0.00
2008,06,12,02,02,0.00
2008,06,12,02,03,0.00
2008,06,12,02,04,0.00
2008,06,12,02,05,0.00
2008,06,12,02,06,0.00
2008,06,12,02,07,0.00
2008,06,12,02,08,0.00
2008,06,12,02,09,0.00
2008,06,12,02,10,0.00
2008,06,12,02,11,0.00
2008,06,12,02,12,0.00
2008,06,12,02,13,0.00
2008,06,12,02,14,0.00
2008,06,12,02,15,0.00
2008,06,12,02,16,0.00
2008,06,12,02,17,1.40
2008,06,12,02,18,1.10
2008,06,12,02,19,0.60
2008,06,12,02,20,0.80
2008,06,12,02,21,0.40
2008,06,12,02,22,0.00
2008,06,12,02,23,0.30
2008,06,12,02,24,1.30
2008,06,12,02,25,1.80
2008,06,12,02,26,1.50
2008,06,12,02,27,1.80
2008,06,12,02,28,2.30
2008,06,12,02,29,2.60
2008,06,12,02,30,3.30
2008,06,12,02,31,2.30
2008,06,12,02,32,1.10
2008,06,12,02,33,0.40
2008,06,12,02,34,1.10
2008,06,12,02,35,0.20
2008,06,12,02,36,0.00
2008,06,12,02,37,0.00
2008,06,12,02,38,0.00
2008,06,12,02,39,0.00
2008,06,12,02,40,0.00
2008,06,12,02,41,1.50
2008,06,12,02,42,0.00
2008,06,12,02,43,0.90
2008,06,12,02,44,0.30
2008,06,12,02,45,0.00
2008,06,12,02,46,0.00
2008,06,12,02,47,0.20
2008,06,12,02,48,0.20
2008,06,12,02,49,0.20
2008,06,12,02,50,1.00
2008,06,12,02,51,1.30
2008,06,12,02,52,0.00
2008,06,12,02,53,0.00
2008,06,12,02,54,0.00
2008,06,12,02,55,0.10
2008,06,12,02,56,1.00
2008,06,12,02,57,0.50
2008,06,12,02,58,0.00
2008,06,12,02,59,0.80
2008,06,12,03,00,0.90
2008,06,12,03,01,0.10
2008,06,12,03,02,0.00
2008,06,12,03,03,0.00
2008,06,12,03,04,0.00
2008,06,12,03,05,0.00
2008,06,12,03,06,0.00
2008,06,12,03,07,0.00
2008,06,12,03,08,0.00
2008,06,12,03,09,0.00
2008,06,12,03,10,0.00
2008,06,12,03,11,0.00
2008,06,12,03,12,0.00
2008,06,12,03,13,0.00
2008,06,12,03,14,0.00
2008,06,12,03,15,0.00
2008,06,12,03,16,0.00
2008,06,12,03,17,0.00
2008,06,12,03,18,0.30
2008,06,12,03,19,0.10
2008,06,12,03,20,0.90
2008,06,12,03,21,0.10
2008,06,12,03,22,0.00
2008,06,12,03,23,0.00
2008,06,12,03,24,0.10
2008,06,12,03,25,0.00
2008,06,12,03,26,0.00
2008,06,12,03,27,0.00
2008,06,12,03,28,0.00
2008,06,12,03,29,0.00
2008,06,12,03,30,0.00
2008,06,12,03,31,0.00
2008,06,12,03,32,0.40
2008,06,12,03,33,0.60
2008,06,12,03,34,0.00
2008,06,12,03,35,0.20
2008,06,12,03,36,0.00
2008,06,12,03,37,0.60
2008,06,12,03,38,0.20
2008,06,12,03,39,0.00
2008,06,12,03,40,0.00
2008,06,12,03,41,1.80
2008,06,12,03,42,0.70
2008,06,12,03,43,0.20
2008,06,12,03,44,0.30
2008,06,12,03,45,0.40
2008,06,12,03,46,0.90
2008,06,12,03,47,0.00
2008,06,12,03,48,1.10
2008,06,12,03,49,0.90
2008,06,12,03,50,0.10
2008,06,12,03,51,0.00
2008,06,12,03,52,0.00
2008,06,12,03,53,0.00
2008,06,12,03,54,0.00
2008,06,12,03,55,0.00
2008,06,12,03,56,0.20
2008,06,12,03,57,0.60
2008,06,12,03,58,0.90
2008,06,12,03,59,0.70
2008,06,12,04,00,0.00
2008,06,12,04,01,1.80
2008,06,12,04,02,0.30
2008,06,12,04,03,0.00
2008,06,12,04,04,0.00
2008,06,12,04,05,0.70
2008,06,12,04,06,0.30
2008,06,12,04,07,0.00
2008,06,12,04,08,0.00
2008,06,12,04,09,0.00
2008,06,12,04,10,0.00
2008,06,12,04,11,0.00
2008,06,12,04,12,0.00
2008,06,12,04,13,1.00
2008,06,12,04,14,1.20
2008,06,12,04,15,0.20
2008,06,12,04,16,0.00
2008,06,12,04,17,0.90
2008,06,12,04,18,1.50
2008,06,12,04,19,0.90
2008,06,12,04,20,0.20
2008,06,12,04,21,0.30
2008,06,12,04,22,0.50
2008,06,12,04,23,0.00
2008,06,12,04,24,0.00
2008,06,12,04,25,0.00
2008,06,12,04,26,0.00
2008,06,12,04,27,0.00
2008,06,12,04,28,0.00
2008,06,12,04,29,1.00
2008,06,12,04,30,0.20
2008,06,12,04,31,1.50
2008,06,12,04,32,1.10
2008,06,12,04,33,1.20
2008,06,12,04,34,0.90
2008,06,12,04,35,0.00
2008,06,12,04,36,0.00
2008,06,12,04,37,0.00
2008,06,12,04,38,0.00
2008,06,12,04,39,0.00
2008,06,12,04,40,1.20
2008,06,12,04,41,0.00
2008,06,12,04,42,0.20
2008,06,12,04,43,0.00
2008,06,12,04,44,0.20
2008,06,12,04,45,0.00
2008,06,12,04,46,0.10
2008,06,12,04,47,0.60
2008,06,12,04,48,0.00
2008,06,12,04,49,0.00
2008,06,12,04,50,0.50
2008,06,12,04,51,0.10
2008,06,12,04,52,0.10
2008,06,12,04,53,0.00
2008,06,12,04,54,1.00
2008,06,12,04,55,1.00
2008,06,12,04,56,0.70
2008,06,12,04,57,1.60
2008,06,12,04,58,2.90
2008,06,12,04,59,0.70
2008,06,12,05,00,0.70
2008,06,12,05,01,0.10
2008,06,12,05,02,0.60
2008,06,12,05,03,0.40
2008,06,12,05,04,0.10
2008,06,12,05,05,0.10
2008,06,12,05,06,0.30
2008,06,12,05,07,1.10
2008,06,12,05,08,0.00
2008,06,12,05,09,0.00
2008,06,12,05,10,0.00
2008,06,12,05,11,0.30
2008,06,12,05,12,1.00
2008,06,12,05,13,0.20
2008,06,12,05,14,0.80
2008,06,12,05,15,0.00
2008,06,12,05,16,1.80
2008,06,12,05,17,0.60
2008,06,12,05,18,0.20
2008,06,12,05,19,0.00
2008,06,12,05,20,0.00
2008,06,12,05,21,0.70
2008,06,12,05,22,0.00
2008,06,12,05,23,0.00
2008,06,12,05,24,0.00
2008,06,12,05,25,0.00
2008,06,12,05,26,0.00
2008,06,12,05,27,0.00
2008,06,12,05,28,0.00
2008,06,12,05,29,0.00
2008,06,12,05,30,0.00
2008,06,12,05,31,0.00
2008,06,12,05,32,0.00
2008,06,12,05,33,0.00
2008,06,12,05,34,0.10
2008,06,12,05,35,0.40
2008,06,12,05,36,0.50
2008,06,12,05,37,0.00
2008,06,12,05,38,0.00
2008,06,12,05,39,0.00
2008,06,12,05,40,0.40
2008,06,12,05,41,1.20
2008,06,12,05,42,0.10
2008,06,12,05,43,0.10
2008,06,12,05,44,0.20
2008,06,12,05,45,1.00
2008,06,12,05,46,0.00
2008,06,12,05,47,0.90
2008,06,12,05,48,0.00
2008,06,12,05,49,0.00
2008,06,12,05,50,0.00
2008,06,12,05,51,1.10
2008,06,12,05,52,0.40
2008,06,12,05,53,0.00
2008,06,12,05,54,0.10
2008,06,12,05,55,1.10
2008,06,12,05,56,1.40
2008,06,12,05,57,0.00
2008,06,12,05,58,0.00
2008,06,12,05,59,0.30
2008,06,12,06,00,0.10
2008,06,12,06,01,2.90
2008,06,12,06,02,1.40
2008,06,12,06,03,1.30
2008,06,12,06,04,1.30
2008,06,12,06,05,1.20
2008,06,12,06,06,1.30
2008,06,12,06,07,0.80
2008,06,12,06,08,0.90
2008,06,12,06,09,1.30
2008,06,12,06,10,0.80
2008,06,12,06,11,0.70
2008,06,12,06,12,1.20
2008,06,12,06,13,0.00
2008,06,12,06,14,0.30
2008,06,12,06,15,0.40
2008,06,12,06,16,0.00
2008,06,12,06,17,0.00
2008,06,12,06,18,0.00
2008,06,12,06,19,0.00
2008,06,12,06,20,0.20
2008,06,12,06,21,0.10
2008,06,12,06,22,1.40
2008,06,12,06,23,0.70
2008,06,12,06,24,1.00
2008,06,12,06,25,2.00
2008,06,12,06,26,0.50
2008,06,12,06,27,0.40
2008,06,12,06,28,0.00
2008,06,12,06,29,0.90
2008,06,12,06,30,0.50
2008,06,12,06,31,0.00
2008,06,12,06,32,0.10
2008,06,12,06,33,0.40
2008,06,12,06,34,0.10
2008,06,12,06,35,1.50
2008,06,12,06,36,2.70
2008,06,12,06,37,0.90
2008,06,12,06,38,1.30
2008,06,12,06,39,0.00
2008,06,12,06,40,0.20
2008,06,12,06,41,0.10
2008,06,12,06,42,0.00
2008,06,12,06,43,0.00
2008,06,12,06,44,0.10
2008,06,12,06,45,0.30
2008,06,12,06,46,0.00
2008,06,12,06,47,0.00
2008,06,12,06,48,0.80
2008,06,12,06,49,0.30
2008,06,12,06,50,0.00
2008,06,12,06,51,0.00
2008,06,12,06,52,0.30
2008,06,12,06,53,0.70
2008,06,12,06,54,0.00
2008,06,12,06,55,0.00
2008,06,12,06,56,0.60
2008,06,12,06,57,0.30
2008,06,12,06,58,0.00
2008,06,12,06,59,0.10
2008,06,12,07,00,0.60
2008,06,12,07,01,0.20
2008,06,12,07,02,0.20
2008,06,12,07,03,0.00
2008,06,12,07,04,0.00
2008,06,12,07,05,1.40
2008,06,12,07,06,0.70
2008,06,12,07,07,1.10
2008,06,12,07,08,0.10
2008,06,12,07,09,1.00
2008,06,12,07,10,1.00
2008,06,12,07,11,1.90
2008,06,12,07,12,1.30
2008,06,12,07,13,0.70
2008,06,12,07,14,0.10
2008,06,12,07,15,1.40
2008,06,12,07,16,1.40
2008,06,12,07,17,3.60
2008,06,12,07,18,1.50
2008,06,12,07,19,1.40
2008,06,12,07,20,0.70
2008,06,12,07,21,0.80
2008,06,12,07,22,0.70
2008,06,12,07,23,1.00
2008,06,12,07,24,0.60
2008,06,12,07,25,0.20
2008,06,12,07,26,0.00
2008,06,12,07,27,0.00
2008,06,12,07,28,1.00
2008,06,12,07,29,0.30
2008,06,12,07,30,0.10
2008,06,12,07,31,0.00
2008,06,12,07,32,0.00
2008,06,12,07,33,0.00
2008,06,12,07,34,0.00
2008,06,12,07,35,0.00
2008,06,12,07,36,0.00
2008,06,12,07,37,0.00
2008,06,12,07,38,0.00
2008,06,12,07,39,0.00
2008,06,12,07,40,0.00
2008,06,12,07,41,0.00
2008,06,12,07,42,0.00
2008,06,12,07,43,0.00
2008,06,12,07,44,0.00
2008,06,12,07,45,0.00
2008,06,12,07,46,0.00
2008,06,12,07,47,0.00
2008,06,12,07,48,0.00
2008,06,12,07,49,0.00
2008,06,12,07,50,0.00
2008,06,12,07,51,0.00
2008,06,12,07,52,0.00
2008,06,12,07,53,0.00
2008,06,12,07,54,0.00
2008,06,12,07,55,0.00
2008,06,12,07,56,0.10
2008,06,12,07,57,1.20
2008,06,12,07,58,0.20
2008,06,12,07,59,0.00
2008,06,12,08,00,0.00
2008,06,12,08,01,0.00
2008,06,12,08,02,0.10
2008,06,12,08,03,0.00
2008,06,12,08,04,1.30
2008,06,12,08,05,0.70
2008,06,12,08,06,1.10
2008,06,12,08,07,0.40
2008,06,12,08,08,1.80
2008,06,12,08,09,5.50
2008,06,12,08,10,2.30
2008,06,12,08,11,2.20
2008,06,12,08,12,2.20
2008,06,12,08,13,4.70
2008,06,12,08,14,6.00
2008,06,12,08,15,5.90
2008,06,12,08,16,5.30
2008,06,12,08,17,5.20
2008,06,12,08,18,3.20
2008,06,12,08,19,5.50
2008,06,12,08,20,5.60
2008,06,12,08,21,8.30
2008,06,12,08,22,7.70
2008,06,12,08,23,6.40
2008,06,12,08,24,5.00
2008,06,12,08,25,5.00
2008,06,12,08,26,6.10
2008,06,12,08,27,6.60
2008,06,12,08,28,4.20
2008,06,12,08,29,5.60
2008,06,12,08,30,10.50
2008,06,12,08,31,9.90
2008,06,12,08,32,9.60
2008,06,12,08,33,13.40
2008,06,12,08,34,7.40
2008,06,12,08,35,7.30
2008,06,12,08,36,6.30
2008,06,12,08,37,4.30
2008,06,12,08,38,4.80
2008,06,12,08,39,6.40
2008,06,12,08,40,10.10
2008,06,12,08,41,7.20
2008,06,12,08,42,7.40
2008,06,12,08,43,6.40
2008,06,12,08,44,6.00
2008,06,12,08,45,7.50
2008,06,12,08,46,9.80
2008,06,12,08,47,7.10
2008,06,12,08,48,8.10
2008,06,12,08,49,11.90
2008,06,12,08,50,9.40
2008,06,12,08,51,5.80
2008,06,12,08,52,6.10
2008,06,12,08,53,3.00
2008,06,12,08,54,7.10
2008,06,12,08,55,8.70
2008,06,12,08,56,9.70
2008,06,12,08,57,10.30
2008,06,12,08,58,6.40
2008,06,12,08,59,6.30
2008,06,12,09,00,5.50
2008,06,12,09,01,5.00
2008,06,12,09,02,6.30
2008,06,12,09,03,6.90
2008,06,12,09,04,7.50
2008,06,12,09,05,4.80
2008,06,12,09,06,5.40
2008,06,12,09,07,5.20
2008,06,12,09,08,4.40
2008,06,12,09,09,2.80
2008,06,12,09,10,6.20
2008,06,12,09,11,3.20
2008,06,12,09,12,5.00
2008,06,12,09,13,4.70
2008,06,12,09,14,1.90
2008,06,12,09,15,0.00
2008,06,12,09,16,2.60
2008,06,12,09,17,2.70
2008,06,12,09,18,0.60
2008,06,12,09,19,7.90
2008,06,12,09,20,5.20
2008,06,12,09,21,6.30
2008,06,12,09,22,5.40
2008,06,12,09,23,5.70
2008,06,12,09,24,5.80
2008,06,12,09,25,7.40
2008,06,12,09,26,4.60
2008,06,12,09,27,6.30
2008,06,12,09,28,4.20
2008,06,12,09,29,3.10
2008,06,12,09,30,4.60
2008,06,12,09,31,10.40
2008,06,12,09,32,13.10
2008,06,12,09,33,12.40
2008,06,12,09,34,12.60
2008,06,12,09,35,10.40
2008,06,12,09,36,6.30
2008,06,12,09,37,3.70
2008,06,12,09,38,4.40
2008,06,12,09,39,5.90
2008,06,12,09,40,5.10
2008,06,12,09,41,9.30
2008,06,12,09,42,9.30
2008,06,12,09,43,3.20
2008,06,12,09,44,5.70
2008,06,12,09,45,7.30
2008,06,12,09,46,5.60
2008,06,12,09,47,7.50
2008,06,12,09,48,4.70
2008,06,12,09,49,8.00
2008,06,12,09,50,6.80
2008,06,12,09,51,5.40
2008,06,12,09,52,2.40
2008,06,12,09,53,3.60
2008,06,12,09,54,7.00
2008,06,12,09,55,8.20
2008,06,12,09,56,6.30
2008,06,12,09,57,6.00
2008,06,12,09,58,6.10
2008,06,12,09,59,9.90
2008,06,12,10,00,8.90
2008,06,12,10,01,6.20
2008,06,12,10,02,6.80
2008,06,12,10,03,8.30
2008,06,12,10,04,5.50
2008,06,12,10,05,6.30
2008,06,12,10,06,9.60
2008,06,12,10,07,7.40
2008,06,12,10,08,5.50
2008,06,12,10,09,5.90
2008,06,12,10,10,6.90
2008,06,12,10,11,6.60
2008,06,12,10,12,11.70
2008,06,12,10,13,10.90
2008,06,12,10,14,5.50
2008,06,12,10,15,6.00
2008,06,12,10,16,4.40
2008,06,12,10,17,5.90
2008,06,12,10,18,14.80
2008,06,12,10,19,8.90
2008,06,12,10,20,5.40
2008,06,12,10,21,11.40
2008,06,12,10,22,5.00
2008,06,12,10,23,12.80
2008,06,12,10,24,11.70
2008,06,12,10,25,9.40
2008,06,12,10,26,8.70
2008,06,12,10,27,10.10
2008,06,12,10,28,10.60
2008,06,12,10,29,8.90
2008,06,12,10,30,11.40
2008,06,12,10,31,8.00
2008,06,12,10,32,7.60
2008,06,12,10,33,11.50
2008,06,12,10,34,7.70
2008,06,12,10,35,6.20
2008,06,12,10,36,5.40
2008,06,12,10,37,8.30
2008,06,12,10,38,9.60
2008,06,12,10,39,10.70
2008,06,12,10,40,6.80
2008,06,12,10,41,9.70
2008,06,12,10,42,9.70
2008,06,12,10,43,8.00
2008,06,12,10,44,7.50
2008,06,12,10,45,8.50
2008,06,12,10,46,6.20
2008,06,12,10,47,14.60
2008,06,12,10,48,11.80
2008,06,12,10,49,8.80
2008,06,12,10,50,8.10
2008,06,12,10,51,13.40
2008,06,12,10,52,6.10
2008,06,12,10,53,4.10
2008,06,12,10,54,2.40
2008,06,12,10,55,6.30
2008,06,12,10,56,12.20
2008,06,12,10,57,11.30
2008,06,12,10,58,7.80
2008,06,12,10,59,6.40
2008,06,12,11,00,8.30
2008,06,12,11,01,11.70
2008,06,12,11,02,10.30
2008,06,12,11,03,7.70
2008,06,12,11,04,8.80
2008,06,12,11,05,9.90
2008,06,12,11,06,12.60
2008,06,12,11,07,6.90
2008,06,12,11,08,7.30
2008,06,12,11,09,8.20
2008,06,12,11,10,6.40
2008,06,12,11,11,10.30
2008,06,12,11,12,10.00
2008,06,12,11,13,11.30
2008,06,12,11,14,14.70
2008,06,12,11,15,11.90
2008,06,12,11,16,12.30
2008,06,12,11,17,9.80
2008,06,12,11,18,7.60
2008,06,12,11,19,2.60
2008,06,12,11,20,8.80
2008,06,12,11,21,8.00
2008,06,12,11,22,12.10
2008,06,12,11,23,9.60
2008,06,12,11,24,14.80
2008,06,12,11,25,12.00
2008,06,12,11,26,9.30
2008,06,12,11,27,6.70
2008,06,12,11,28,6.80
2008,06,12,11,29,9.20
2008,06,12,11,30,15.60
2008,06,12,11,31,7.40
2008,06,12,11,32,9.00
2008,06,12,11,33,6.60
2008,06,12,11,34,13.30
2008,06,12,11,35,13.60
2008,06,12,11,36,9.50
2008,06,12,11,37,8.70
2008,06,12,11,38,11.40
2008,06,12,11,39,11.70
2008,06,12,11,40,7.60
2008,06,12,11,41,8.60
2008,06,12,11,42,11.90
2008,06,12,11,43,9.40
2008,06,12,11,44,14.20
2008,06,12,11,45,10.40
2008,06,12,11,46,10.90
2008,06,12,11,47,10.60
2008,06,12,11,48,7.20
2008,06,12,11,49,7.20
2008,06,12,11,50,8.10
2008,06,12,11,51,8.10
2008,06,12,11,52,7.80
2008,06,12,11,53,11.40
2008,06,12,11,54,7.80
2008,06,12,11,55,8.90
2008,06,12,11,56,13.50
2008,06,12,11,57,10.20
2008,06,12,11,58,8.70
2008,06,12,11,59,8.70
2008,06,12,12,00,11.80
2008,06,12,12,01,11.30
2008,06,12,12,02,8.20
2008,06,12,12,03,7.60
2008,06,12,12,04,11.70
2008,06,12,12,05,13.60
2008,06,12,12,06,11.30
2008,06,12,12,07,8.50
2008,06,12,12,08,15.90
2008,06,12,12,09,8.20
2008,06,12,12,10,8.00
2008,06,12,12,11,14.00
2008,06,12,12,12,10.80
2008,06,12,12,13,11.10
2008,06,12,12,14,12.50
2008,06,12,12,15,11.80
2008,06,12,12,16,14.40
2008,06,12,12,17,7.90
2008,06,12,12,18,6.80
2008,06,12,12,19,9.10
2008,06,12,12,20,13.10
2008,06,12,12,21,9.50
2008,06,12,12,22,10.40
2008,06,12,12,23,6.40
2008,06,12,12,24,8.00
2008,06,12,12,25,11.10
2008,06,12,12,26,9.90
2008,06,12,12,27,9.90
2008,06,12,12,28,9.10
2008,06,12,12,29,15.60
2008,06,12,12,30,15.10
2008,06,12,12,31,19.40
2008,06,12,12,32,9.90
2008,06,12,12,33,13.50
2008,06,12,12,34,11.80
2008,06,12,12,35,15.80
2008,06,12,12,36,17.70
2008,06,12,12,37,9.80
2008,06,12,12,38,9.60
2008,06,12,12,39,6.00
2008,06,12,12,40,7.10
2008,06,12,12,41,13.60
2008,06,12,12,42,10.70
2008,06,12,12,43,8.90
2008,06,12,12,44,13.80
2008,06,12,12,45,14.70
2008,06,12,12,46,12.00
2008,06,12,12,47,10.70
2008,06,12,12,48,10.50
2008,06,12,12,49,16.30
2008,06,12,12,50,9.70
2008,06,12,12,51,14.10
2008,06,12,12,52,14.50
2008,06,12,12,53,12.40
2008,06,12,12,54,8.70
2008,06,12,12,55,8.10
2008,06,12,12,56,13.30
2008,06,12,12,57,8.80
2008,06,12,12,58,10.90
2008,06,12,12,59,9.90
2008,06,12,13,00,17.60
2008,06,12,13,01,10.90
2008,06,12,13,02,7.90
2008,06,12,13,03,7.80
2008,06,12,13,04,8.00
2008,06,12,13,05,10.40
2008,06,12,13,06,9.00
2008,06,12,13,07,9.00
2008,06,12,13,08,12.40
2008,06,12,13,09,16.80
2008,06,12,13,10,11.80
2008,06,12,13,11,12.10
2008,06,12,13,12,13.00
2008,06,12,13,13,12.30
2008,06,12,13,14,10.00
2008,06,12,13,15,14.90
2008,06,12,13,16,11.20
2008,06,12,13,17,16.70
2008,06,12,13,18,15.00
2008,06,12,13,19,14.50
2008,06,12,13,20,15.10
2008,06,12,13,21,9.80
2008,06,12,13,22,13.10
2008,06,12,13,23,16.70
2008,06,12,13,24,16.30
2008,06,12,13,25,10.90
2008,06,12,13,26,6.20
2008,06,12,13,27,12.40
2008,06,12,13,28,11.70
2008,06,12,13,29,6.40
2008,06,12,13,30,9.70
2008,06,12,13,31,10.50
2008,06,12,13,32,15.00
2008,06,12,13,33,9.80
2008,06,12,13,34,11.70
2008,06,12,13,35,7.20
2008,06,12,13,36,12.70
2008,06,12,13,37,10.90
2008,06,12,13,38,10.50
2008,06,12,13,39,7.20
2008,06,12,13,40,9.30
2008,06,12,13,41,10.30
2008,06,12,13,42,9.60
2008,06,12,13,43,11.10
2008,06,12,13,44,9.40
2008,06,12,13,45,6.50
2008,06,12,13,46,9.20
2008,06,12,13,47,11.50
2008,06,12,13,48,10.30
2008,06,12,13,49,7.40
2008,06,12,13,50,6.50
2008,06,12,13,51,5.80
2008,06,12,13,52,4.70
2008,06,12,13,53,13.20
2008,06,12,13,54,8.90
2008,06,12,13,55,6.00
2008,06,12,13,56,9.30
2008,06,12,13,57,13.40
2008,06,12,13,58,6.80
2008,06,12,13,59,8.70
2008,06,12,14,00,7.60
2008,06,12,14,01,13.10
2008,06,12,14,02,7.80
2008,06,12,14,03,9.80
2008,06,12,14,04,6.10
2008,06,12,14,05,6.10
2008,06,12,14,06,10.40
2008,06,12,14,07,6.10
2008,06,12,14,08,9.40
2008,06,12,14,09,11.90
2008,06,12,14,10,4.80
2008,06,12,14,11,5.20
2008,06,12,14,12,4.60
2008,06,12,14,13,7.60
2008,06,12,14,14,12.60
2008,06,12,14,15,7.10
2008,06,12,14,16,10.90
2008,06,12,14,17,10.40
2008,06,12,14,18,15.40
2008,06,12,14,19,9.50
2008,06,12,14,20,16.70
2008,06,12,14,21,10.10
2008,06,12,14,22,4.70
2008,06,12,14,23,3.00
2008,06,12,14,24,8.40
2008,06,12,14,25,9.20
2008,06,12,14,26,5.40
2008,06,12,14,27,8.50
2008,06,12,14,28,9.90
2008,06,12,14,29,7.90
2008,06,12,14,30,6.80
2008,06,12,14,31,5.70
2008,06,12,14,32,6.90
2008,06,12,14,33,10.20
2008,06,12,14,34,6.60
2008,06,12,14,35,9.30
2008,06,12,14,36,8.60
2008,06,12,14,37,5.20
2008,06,12,14,38,10.00
2008,06,12,14,39,7.80
2008,06,12,14,40,9.80
2008,06,12,14,41,9.70
2008,06,12,14,42,9.60
2008,06,12,14,43,11.90
2008,06,12,14,44,13.40
2008,06,12,14,45,8.90
2008,06,12,14,46,6.30
2008,06,12,14,47,11.70
2008,06,12,14,48,9.70
2008,06,12,14,49,11.00
2008,06,12,14,50,13.30
2008,06,12,14,51,13.20
2008,06,12,14,52,7.20
2008,06,12,14,53,7.20
2008,06,12,14,54,8.00
2008,06,12,14,55,7.60
2008,06,12,14,56,12.30
2008,06,12,14,57,6.10
2008,06,12,14,58,11.40
2008,06,12,14,59,9.40
2008,06,12,15,00,8.80
2008,06,12,15,01,6.00
2008,06,12,15,02,4.40
2008,06,12,15,03,3.50
2008,06,12,15,04,13.30
2008,06,12,15,05,8.40
2008,06,12,15,06,8.60
2008,06,12,15,07,4.60
2008,06,12,15,08,10.30
2008,06,12,15,09,8.10
2008,06,12,15,10,13.70
2008,06,12,15,11,11.10
2008,06,12,15,12,11.10
2008,06,12,15,13,16.70
2008,06,12,15,14,14.90
2008,06,12,15,15,15.50
2008,06,12,15,16,10.40
2008,06,12,15,17,15.60
2008,06,12,15,18,12.90
2008,06,12,15,19,15.30
2008,06,12,15,20,18.00
2008,06,12,15,21,16.80
2008,06,12,15,22,13.90
2008,06,12,15,23,15.00
2008,06,12,15,24,11.20
2008,06,12,15,25,16.30
2008,06,12,15,26,13.50
2008,06,12,15,27,14.40
2008,06,12,15,28,15.10
2008,06,12,15,29,12.60
2008,06,12,15,30,18.90
2008,06,12,15,31,13.30
2008,06,12,15,32,16.80
2008,06,12,15,33,12.10
2008,06,12,15,34,15.00
2008,06,12,15,35,17.50
2008,06,12,15,36,8.10
2008,06,12,15,37,17.30
2008,06,12,15,38,10.10
2008,06,12,15,39,11.10
2008,06,12,15,40,10.00
2008,06,12,15,41,13.30
2008,06,12,15,42,8.60
2008,06,12,15,43,9.20
2008,06,12,15,44,14.70
2008,06,12,15,45,15.10
2008,06,12,15,46,18.40
2008,06,12,15,47,19.80
2008,06,12,15,48,14.80
2008,06,12,15,49,16.30
2008,06,12,15,50,11.60
2008,06,12,15,51,8.30
2008,06,12,15,52,14.60
2008,06,12,15,53,7.70
2008,06,12,15,54,15.80
2008,06,12,15,55,16.60
2008,06,12,15,56,11.00
2008,06,12,15,57,10.30
2008,06,12,15,58,9.70
2008,06,12,15,59,11.10
2008,06,12,16,00,12.80
2008,06,12,16,01,13.40
2008,06,12,16,02,14.70
2008,06,12,16,03,11.00
2008,06,12,16,04,15.90
2008,06,12,16,05,13.30
2008,06,12,16,06,16.50
2008,06,12,16,07,16.50
2008,06,12,16,08,11.90
2008,06,12,16,09,14.50
2008,06,12,16,10,9.00
2008,06,12,16,11,8.30
2008,06,12,16,12,8.30
2008,06,12,16,13,12.60
2008,06,12,16,14,15.00
2008,06,12,16,15,10.60
2008,06,12,16,16,9.40
2008,06,12,16,17,11.30
2008,06,12,16,18,11.00
2008,06,12,16,19,12.10
2008,06,12,16,20,14.90
2008,06,12,16,21,11.20
2008,06,12,16,22,16.80
2008,06,12,16,23,9.90
2008,06,12,16,24,19.90
2008,06,12,16,25,13.50
2008,06,12,16,26,15.70
2008,06,12,16,27,10.90
2008,06,12,16,28,11.80
2008,06,12,16,29,15.80
2008,06,12,16,30,19.20
2008,06,12,16,31,16.80
2008,06,12,16,32,10.40
2008,06,12,16,33,13.90
2008,06,12,16,34,11.90
2008,06,12,16,35,20.30
2008,06,12,16,36,15.00
2008,06,12,16,37,10.70
2008,06,12,16,38,9.50
2008,06,12,16,39,10.30
2008,06,12,16,40,13.50
2008,06,12,16,41,13.20
2008,06,12,16,42,12.10
2008,06,12,16,43,8.40
2008,06,12,16,44,8.70
2008,06,12,16,45,9.30
2008,06,12,16,46,13.00
2008,06,12,16,47,9.40
2008,06,12,16,48,15.40
2008,06,12,16,49,13.80
2008,06,12,16,50,11.60
2008,06,12,16,51,15.80
2008,06,12,16,52,13.00
2008,06,12,16,53,7.10
2008,06,12,16,54,20.50
2008,06,12,16,55,7.80
2008,06,12,16,56,6.50
2008,06,12,16,57,12.90
2008,06,12,16,58,15.00
2008,06,12,16,59,12.70
2008,06,12,17,00,8.10
2008,06,12,17,01,5.30
2008,06,12,17,02,9.40
2008,06,12,17,03,8.40
2008,06,12,17,04,6.50
2008,06,12,17,05,4.10
2008,06,12,17,06,5.70
2008,06,12,17,07,7.70
2008,06,12,17,08,11.20
2008,06,12,17,09,9.00
2008,06,12,17,10,11.10
2008,06,12,17,11,17.90
2008,06,12,17,12,8.40
2008,06,12,17,13,11.80
2008,06,12,17,14,9.20
2008,06,12,17,15,7.60
2008,06,12,17,16,10.60
2008,06,12,17,17,13.00
2008,06,12,17,18,6.20
2008,06,12,17,19,6.40
2008,06,12,17,20,3.80
2008,06,12,17,21,3.20
2008,06,12,17,22,3.50
2008,06,12,17,23,4.20
2008,06,12,17,24,3.90
2008,06,12,17,25,4.80
2008,06,12,17,26,7.80
2008,06,12,17,27,7.90
2008,06,12,17,28,8.40
2008,06,12,17,29,3.10
2008,06,12,17,30,3.10
2008,06,12,17,31,8.70
2008,06,12,17,32,7.20
2008,06,12,17,33,10.20
2008,06,12,17,34,7.50
2008,06,12,17,35,7.60
2008,06,12,17,36,10.50
2008,06,12,17,37,9.40
2008,06,12,17,38,8.10
2008,06,12,17,39,8.00
2008,06,12,17,40,8.50
2008,06,12,17,41,7.20
2008,06,12,17,42,7.20
2008,06,12,17,43,6.20
2008,06,12,17,44,6.50
2008,06,12,17,45,8.00
2008,06,12,17,46,6.40
2008,06,12,17,47,3.50
2008,06,12,17,48,6.00
2008,06,12,17,49,10.60
2008,06,12,17,50,7.60
2008,06,12,17,51,13.90
2008,06,12,17,52,9.80
2008,06,12,17,53,8.30
2008,06,12,17,54,14.40
2008,06,12,17,55,17.50